sat.trackr.live / text

‹ back to catalog

STARLINK-37165

NORAD 68287 · 2026-055AB

PAYLOAD ACTIVE UNKNOWN

§ Identity

Operator
Country
US
Launch date
2026-03-19
Launch site
AFETR
Launch vehicle
Mass (kg)
RCS (m²)

Purposes: comms

External: N2YO · Heavens-Above · Gunter

§ Orbital elements

Epoch: 2026-05-25T04:52:39.270720Z

Period
93.85 min
Inclination
53.1584°
Eccentricity
0.0001128
Mean motion
15.34411968 rev/d
Perigee alt
461.9 km
Apogee alt
463.4 km
Semi-major
6,840.8 km
B*
6.0983e-4
RAAN
322.5574°
Arg perigee
88.3094°
Mean anomaly
271.8038°
Rev number
1,166

§ Raw data

STARLINK-371651 68287U 26055AB  26145.20323230  .00020291  00000+0  60983-3 0  99942 68287  53.1584 322.5574 0001128  88.3094 271.8038 15.34411968 11666

JSON: /api/v1/satellites/68287 · /tle

For live sub-satellite position, see the globe view (requires WebGL).

§ Visibility from observer

Set your observer location to see the next 7 days of passes ≥ 10°. The values pass through the URL so the page stays shareable.

No JS? Fill the form by hand. The geolocation button needs JavaScript.